Helicity
28 29 33 39 41 42 44 44 45 53 59 68 82 79 81 92 90 -3 -20 11 -6 8 0 -3 -7 -11 2 20 3 30 39 152 140 9 0 1 60 34 11 59 21 19 10 -10 20
31 31 34 39 41 41 44 49 50 46 51 65 81 93 83 68 22 -27 -12 11 -5 7 -5 7 15 1 11 16 9 8 2 101 117 78 -14 34 58 74 41 47 17 59 68 69 34
34 34 37 40 41 45 47 51 56 57 50 48 72 91 89 50 17 29 16 7 -4 -12 -18 -17 21 13 6 -14 20 18 -9 142 84 43 20 15 9 34 55 38 51 123 54 34 20
41 41 41 41 39 38 45 45 53 50 48 57 64 74 89 25 49 16 20 38 0 -20 -10 6 21 -3 19 -17 -12 19 8 47 50 74 61 55 49 40 77 34 34 77 52 11 9
54 60 55 45 41 45 54 64 66 55 58 33 34 43 34 53 20 19 26 51 7 -24 -16 -5 18 28 50 46 29 4 53 9 10 83 67 68 -3 -14 37 13 62 49 18 26 8
76 80 73 65 57 63 72 74 70 69 48 4 -8 5 37 42 22 24 43 21 -7 -30 -41 -14 26 28 41 22 10 47 50 69 31 41 66 3 -5 -10 -14 18 77 72 29 23 54
98 95 78 68 74 87 97 102 85 58 25 -50 -37 -18 20 12 6 30 33 10 -27 -30 4 -5 14 6 6 11 8 24 47 27 64 -12 -39 -43 -31 -23 -3 78 84 50 30 25 16
97 96 73 62 74 87 107 101 68 22 -9 -25 -20 -22 1 8 13 51 27 53 26 -34 -8 24 39 42 2 5 -11 12 59 16 66 -13 16 -50 -41 86 -5 118 88 89 37 80 38
104 106 82 58 35 60 93 79 37 25 13 11 -21 -15 -6 -6 3 22 53 93 55 54 25 36 30 39 8 16 2 24 61 65 35 44 29 16 60 39 24 27 50 83 115 98 90
98 114 105 91 39 33 32 -18 10 25 3 6 -8 -4 -16 -1 -18 17 49 76 126 146 99 78 62 44 39 25 12 -4 16 -13 -2 54 38 6 34 9 20 50 14 52 86 105 132
115 124 120 93 76 -7 3 5 -6 -12 5 20 14 -10 -24 -41 -24 -25 18 64 99 130 78 103 32 6 57 48 3 -4 -1 10 -16 36 50 56 20 176 -5 -31 46 6 41 72 110
111 130 136 112 71 -42 8 13 -14 22 -36 3 11 -9 -13 -50 -30 -20 13 50 48 48 60 63 -12 2 -3 13 33 58 16 6 13 25 28 35 66 110 62 8 8 20 60 105 106
96 108 129 143 -54 -15 15 -10 46 52 -11 -53 -28 -42 -30 29 -36 -35 2 23 33 38 20 -3 -25 20 17 11 10 0 73 51 15 49 1 21 19 105 140 128 87 -11 2 51 115
106 92 78 171 5 -10 -4 -3 18 39 -6 -50 -73 -116 -37 -37 -42 -39 -21 21 52 30 10 7 24 15 37 24 75 23 60 71 63 56 9 14 27 -2 108 127 124 39 -9 34 52
134 78 39 9 14 26 12 2 6 2 61 -56 -77 -53 -39 -15 -34 -24 -3 23 41 46 29 83 60 45 55 13 47 -1 38 104 79 77 21 26 56 10 12 31 68 116 125 -8 55
162 72 13 35 33 3 0 3 11 36 64 -37 -40 -52 -32 -40 -44 18 1 -2 4 24 44 95 59 46 20 45 48 68 201 186 111 61 44 38 39 42 33 -5 -17 -1 66 120 34
169 118 12 50 40 72 57 27 60 91 -8 6 -40 -43 -20 -39 -31 -9 -20 -32 -20 20 70 88 65 53 43 90 87 47 105 93 78 74 31 57 52 -15 16 -4 -13 -21 0 1 40
158 41 28 25 33 64 88 77 96 77 60 3 -23 -29 -42 -16 -48 -1 -12 -52 -63 -10 55 31 62 29 72 27 31 97 80 55 22 42 29 92 17 12 52 38 20 21 37 17 157
81 36 49 47 28 93 122 134 74 73 62 72 19 5 -13 -17 -6 12 0 4 -13 26 21 38 30 28 53 57 64 28 71 73 85 73 67 39 38 46 87 67 30 36 52 41 38
43 43 59 46 50 102 127 79 39 37 43 98 112 75 56 17 31 23 7 1 17 25 54 22 58 27 34 48 104 56 62 62 67 37 21 31 41 34 48 27 14 -17 6 30 16
33 87 31 39 56 108 109 49 9 24 20 64 115 107 83 81 37 42 20 24 35 39 72 56 59 55 92 117 81 75 102 119 101 91 47 45 24 32 34 18 -10 -51 -45 -7 33
62 112 38 17 92 95 61 52 30 43 29 17 38 70 93 93 73 47 57 35 47 99 98 63 64 54 61 89 100 89 99 114 139 60 94 58 8 19 19 29 37 -25 -39 3 21
88 88 34 62 117 83 57 61 59 49 52 90 93 55 80 110 136 51 79 59 100 107 95 72 111 78 85 112 135 145 134 147 150 130 58 49 -1 16 3 0 0 -46 -59 -19 9
35 154 108 128 143 91 78 53 65 94 43 88 88 65 83 109 110 78 89 115 100 101 141 135 156 115 66 46 139 157 109 111 109 83 55 36 36 2 -19 7 27 29 11 -14 -40
38 94 102 162 128 110 48 46 35 39 82 99 139 122 130 115 131 83 112 129 157 126 163 144 139 93 63 68 84 84 71 100 59 85 86 60 51 2 3 9 74 56 14 -7 9
78 95 60 65 91 65 106 82 60 47 26 78 132 160 171 141 100 107 117 136 145 151 202 206 158 96 37 49 54 69 65 53 78 92 74 91 49 16 19 16 45 44 4 -11 7
54 27 32 58 82 111 86 106 115 95 53 51 85 109 147 109 120 120 102 68 57 174 225 206 173 136 47 69 80 86 78 96 98 104 149 99 52 7 1 2 8 23 20 7 11
Wind_Speed
17 19 21 22 24 24 26 33 38 36 34 35 37 37 38 39 38 20 32 23 27 33 33 31 24 28 33 38 37 30 22 22 18 19 31 36 41 44 33 47 36 29 44 45 46
15 19 20 19 19 19 23 25 33 38 38 37 37 38 37 37 26 29 25 23 26 32 33 33 33 31 34 38 40 41 24 17 22 23 40 33 41 43 42 44 40 34 33 43 49
8 11 13 15 16 19 21 24 30 31 36 40 38 37 36 32 22 20 17 25 27 30 29 31 33 32 36 37 32 43 25 29 33 25 34 38 39 41 43 38 37 46 49 50 56
10 10 9 9 11 12 18 29 29 36 37 37 36 34 33 22 20 22 17 22 23 27 32 33 34 34 35 38 40 41 36 31 25 32 29 34 39 40 42 32 38 47 53 55 56
12 13 8 8 11 13 12 14 24 32 32 35 32 30 23 21 23 23 18 18 17 24 43 35 34 34 32 38 42 40 33 41 15 27 34 34 41 40 43 36 42 48 55 55 55
11 10 7 7 9 10 12 14 17 21 29 30 28 28 23 20 27 20 17 14 15 23 37 17 30 30 35 37 36 38 37 44 40 25 29 42 38 39 42 39 42 50 54 53 53
9 7 5 6 9 12 15 16 20 26 31 32 30 29 26 24 26 19 16 13 13 15 17 20 24 27 34 37 41 45 41 38 37 37 41 44 36 41 44 41 45 45 50 50 50
13 9 3 6 10 15 15 16 21 29 32 32 31 30 27 25 22 14 12 11 9 11 17 22 25 23 28 33 36 38 37 32 35 40 36 39 42 24 34 45 48 47 47 50 50
28 19 9 5 12 13 10 10 23 30 32 32 31 32 27 27 17 12 9 14 11 18 21 22 20 22 24 26 30 33 23 30 35 36 28 34 18 34 43 46 42 46 47 48 48
50 44 34 21 7 12 16 39 38 35 32 30 30 32 29 27 18 13 13 19 21 21 19 21 22 21 18 18 27 28 33 30 31 28 28 25 24 34 38 47 43 42 46 46 46
60 57 51 45 31 19 37 37 42 36 33 29 26 27 26 23 18 14 13 15 19 19 18 27 24 12 16 15 28 32 36 32 31 29 27 27 20 34 52 51 40 42 44 50 51
66 63 59 55 50 28 35 39 40 37 29 27 25 25 28 27 21 15 11 16 18 19 20 29 23 11 20 11 12 43 41 30 29 27 25 25 28 33 36 35 47 54 41 46 52
71 68 62 57 41 29 33 33 34 36 34 30 28 29 30 29 24 22 15 15 18 17 13 18 22 23 16 26 35 34 16 18 28 26 25 27 18 24 19 30 39 55 56 44 42
75 72 67 60 26 27 26 30 32 28 37 31 29 27 28 29 27 19 16 16 17 16 20 30 27 31 29 33 19 37 13 17 21 24 32 30 38 33 19 16 35 47 54 48 43
79 76 69 48 27 21 23 35 34 31 30 31 27 29 23 23 27 22 16 16 18 18 18 26 28 29 34 31 12 30 28 14 18 25 33 33 38 34 35 28 32 32 37 55 38
81 79 67 36 25 13 33 35 28 30 24 25 24 24 23 20 24 23 16 15 19 20 27 36 32 32 30 26 18 23 20 23 27 31 42 37 31 39 35 38 40 38 43 39 41
76 74 39 26 25 19 28 27 21 19 26 26 20 18 17 20 19 18 14 10 13 17 31 34 28 34 28 21 21 23 25 34 38 41 44 36 35 39 35 44 48 51 51 64 58
76 65 29 20 26 27 17 18 14 19 20 30 27 17 12 15 17 16 16 15 13 16 18 22 28 40 33 26 24 27 22 28 40 39 39 34 41 42 33 41 46 46 48 51 32
72 48 35 35 13 18 7 10 12 14 28 33 31 18 12 15 14 11 10 17 21 6 13 16 26 30 24 23 23 24 28 26 30 35 40 39 45 42 29 45 46 47 44 43 41
66 42 43 40 14 16 7 13 13 18 31 33 26 29 21 22 10 6 10 22 25 21 29 20 24 30 25 24 31 23 20 29 34 40 45 44 49 51 33 36 39 44 47 45 46
50 39 41 31 24 16 8 12 19 21 27 26 27 30 33 35 25 18 18 31 21 14 17 23 31 36 31 30 21 22 22 31 30 36 44 51 51 38 27 30 34 36 44 48 47
50 37 37 24 20 17 14 16 23 26 32 29 27 32 36 41 37 25 16 27 16 7 11 21 26 29 32 31 33 28 26 24 32 43 43 44 49 33 27 27 29 33 40 45 47
55 33 33 23 22 20 23 23 25 27 31 34 36 33 41 43 40 29 26 21 7 14 11 15 31 32 35 38 35 33 28 29 30 30 33 39 45 34 34 35 32 45 46 46 46
46 44 33 32 26 23 30 25 26 38 26 36 38 37 40 44 35 35 27 21 17 23 22 23 28 31 37 37 29 27 27 22 26 29 29 35 48 40 36 35 35 35 39 39 41
44 39 32 34 29 33 31 27 29 28 34 38 35 40 43 44 44 40 30 26 26 16 23 29 33 33 35 32 30 31 30 17 21 24 29 35 37 44 40 34 26 32 36 40 40
44 40 36 33 33 32 32 29 33 33 30 35 40 52 47 41 38 44 44 37 34 29 26 30 33 32 28 29 29 34 29 27 27 28 23 23 27 43 37 28 27 26 36 44 44
40 34 33 34 34 36 34 33 31 46 45 45 52 56 53 44 55 63 52 46 39 27 31 25 22 26 33 32 39 45 38 36 35 27 7 13 18 36 27 27 31 31 35 42 46
Wind_Direction
267 266 262 258 254 250 250 269 282 270 257 252 254 256 262 267 274 13 143 65 84 88 85 73 9 13 357 17 17 81 300 231 273 7 68 73 123 119 118 99 136 144 108 115 107
269 270 265 254 237 225 235 235 261 275 271 261 253 255 264 281 336 140 107 83 71 87 87 88 80 39 355 21 36 14 58 265 280 284 142 192 149 119 110 111 92 41 58 90 111
268 260 250 240 230 232 230 231 244 244 263 283 276 279 284 308 355 13 53 97 92 93 83 89 82 45 37 354 15 44 52 235 236 279 208 190 134 139 111 121 128 103 105 110 127
287 269 238 205 182 184 231 260 249 264 266 267 279 293 296 350 345 8 26 98 89 91 94 94 101 95 18 340 42 41 36 250 270 235 221 196 176 132 126 136 113 114 118 120 129
299 287 252 183 155 142 154 186 238 259 254 288 303 316 347 329 331 358 29 87 68 91 129 106 96 99 118 95 87 43 90 159 289 262 223 209 163 147 136 105 95 115 128 131 139
313 292 248 197 166 150 142 150 161 196 256 312 345 348 339 354 339 19 48 71 77 94 115 63 97 83 54 77 88 93 81 131 126 298 281 179 167 173 157 104 109 125 135 141 140
328 305 251 186 151 132 129 136 144 133 112 36 18 1 332 329 340 27 50 49 69 75 48 22 1 15 59 56 89 102 78 162 117 136 170 182 154 159 166 122 128 130 138 145 153
318 304 246 150 141 119 119 130 125 99 77 54 42 24 350 348 357 9 23 353 3 63 353 355 348 24 14 57 45 92 116 57 123 126 157 126 167 258 121 127 135 135 141 152 159
312 301 272 178 119 113 130 149 109 79 64 56 38 25 19 357 342 354 17 321 335 304 314 339 9 358 11 38 6 46 265 163 84 126 82 143 14 170 174 136 137 146 152 161 166
321 313 297 271 177 109 93 59 57 55 60 64 67 41 37 17 44 24 327 301 294 296 311 322 333 344 349 18 347 311 346 38 56 96 137 210 96 131 141 165 154 154 162 163 167
323 320 312 302 275 87 52 54 41 47 47 66 79 59 59 14 25 34 339 317 301 301 299 293 312 0 107 75 337 332 335 359 11 49 91 115 55 137 180 193 159 167 166 178 181
324 320 316 309 301 51 51 43 51 46 61 71 104 108 119 62 50 356 9 305 301 293 300 291 283 306 330 58 350 290 297 333 4 37 63 69 120 134 145 165 180 194 166 174 183
323 320 314 305 354 37 32 48 53 46 49 52 64 70 75 89 45 83 70 319 301 307 314 302 311 317 331 309 300 318 42 30 349 7 340 354 360 131 127 161 175 208 210 175 167
321 320 317 303 15 17 31 42 34 63 34 50 45 45 57 54 70 60 73 354 319 309 301 286 304 294 304 300 330 303 43 7 360 359 326 336 292 313 345 140 170 183 202 182 178
319 319 321 342 353 10 27 2 25 31 37 47 48 34 38 39 29 78 71 345 317 316 318 293 295 307 298 302 50 319 335 2 3 347 329 332 312 329 319 320 175 178 180 192 175
313 318 324 349 351 2 333 346 13 12 37 39 54 43 49 33 6 22 50 16 337 322 300 279 294 298 307 319 346 4 2 346 333 328 298 322 332 315 321 298 291 292 190 180 181
308 304 349 355 354 353 333 350 11 19 7 8 18 29 51 40 43 18 19 30 56 333 280 282 292 286 300 335 334 332 330 304 303 304 301 324 322 320 326 300 288 279 273 251 202
308 320 7 4 337 325 343 360 4 10 10 345 344 360 1 22 21 47 5 328 340 351 334 298 293 297 297 312 329 326 327 319 303 309 313 325 314 317 325 315 303 299 288 276 284
311 4 16 354 10 339 358 331 355 12 346 336 326 348 350 345 353 37 84 316 309 37 350 359 321 316 318 326 333 339 321 337 332 329 318 319 310 313 331 317 311 294 294 292 286
347 7 9 349 47 347 344 313 334 346 339 332 331 325 332 339 353 358 11 322 299 286 271 320 318 312 329 345 333 346 24 331 329 319 315 315 306 303 328 326 326 305 287 287 284
2 6 16 21 353 353 320 317 317 333 342 334 325 314 309 310 325 303 311 301 302 294 291 305 305 299 301 313 347 6 358 347 345 331 318 315 314 323 332 340 344 325 296 287 292
358 1 13 18 18 357 334 328 328 323 323 317 314 305 303 302 303 304 296 294 296 330 308 311 318 311 306 314 318 333 340 354 336 320 320 320 320 335 333 343 354 337 313 302 288
352 4 14 23 352 340 333 320 318 318 318 307 303 303 300 296 290 300 296 308 297 292 299 313 308 309 313 310 314 316 328 337 346 352 336 323 324 345 328 315 334 312 304 305 299
357 347 2 10 13 348 332 325 319 311 310 308 301 301 296 289 289 286 289 296 299 297 301 304 308 310 308 313 326 320 325 335 340 341 353 335 321 338 328 319 318 333 319 322 317
356 351 358 347 347 340 333 326 318 318 308 304 299 304 292 286 284 275 279 285 294 303 305 303 300 307 314 315 316 316 320 328 325 335 340 343 335 331 326 324 333 336 319 319 316
347 347 349 337 336 333 327 321 316 314 308 300 292 294 294 287 284 276 274 276 280 289 296 302 298 304 311 318 321 310 319 323 315 322 334 345 345 320 326 336 348 354 313 304 309
356 355 347 338 332 326 320 315 315 310 298 289 289 289 287 288 286 268 278 279 286 280 281 290 303 302 306 311 310 304 306 308 314 323 334 340 356 323 330 336 346 351 335 314 305